THORAD DELTA 1 DEB, 8170

Orbit data source: Space-Track

THORAD DELTA 1 DEB, 8170 is space debris in SSO originally from a launch on Fri, 15 Nov 1974 UTC launched from the Air Force Western Test Range (AFWTR). Debris objects in space refer to the collection of defunct objects orbiting the Earth. Examples of debris include non-operational satellites, rocket bodies, and fragments generated from explosions, collisions, or faulty payload assembly.

Loading next visibility...
Identifier
8170, 1974-089AL
Orbit
SSO
Country
Flag of USUS
Related business
Manufacturer
Unknown
Mission
Spacecraft
Bus & Motor
Unknown
Mass
Unknown
Launch date (UTC)
1974-11-15 (52 years ago)
Launch vehicle
Unknown
Launch site
Air Force Western Test Range (AFWTR)
Object type
Payload
Rocket body
Debris
Shape & HBR
Unknown shape, 0.1 m
Radar Cross Section
Medium (>0.1 m² and <1 m²)

Expand to show TLE details & history
Last TLE update: 15 hours ago

TLE from 15 hours ago
0 THORAD DELTA 1 DEB
1 08170U 74089AL  26207.06108034  .00014779  00000-0  62286-2 0  9997
2 08170 101.5935 255.7452 0044546 290.9314 132.2006 14.25284641495541
Epoch: 2026-07-26T01:27Z
TLE epoch observation values (Epoch: 2026-07-26T01:27:57.341Z)
Latitude
61.34937°
Longitude
-91.93996°
Altitude
839.467 km
Speed
7.428 km/s
True Right ascension
15h 35m 15s
True Declination
61° 12' 22"
Sunlit
Object was in daylight at epoch
Visualization orbit readout
Latitude
Unknown
Longitude
Unknown
Altitude
Unknown
Speed
Unknown
Apparent Right ascension
Unknown
Apparent Declination
Unknown
Sunlit
N/A
Visualization observer readout
Local Sidereal Time
05:40:18
Azimuth
Unknown
Elevation
Unknown
Doppler factor
Unknown
Orbital elements
Apogee altitude
836.845 km
Perigee altitude
772.85 km
Semi-major axis
7,182.985 km
Eccentricity
0.00445
Inclination
101.5935°
RAAN
255.7452°
Arg. of periapsis
290.9314°
True anomaly
132.57734°
Mean anomaly
132.2006°
Eccentric anomaly
132.38911°
Mean motion
3.56522 °/min
Orbital period
100.98 mins
BSTAR
0.0062286
Loading maneuver chart data...
Computing Atmospheric mass density...

Documentation

Showing up to 5 results
|